Regional Weather Roundup
Issued by NWS

Home | Current Version | Previous Version | Graphics & Text | Print | Product List | Glossary On
Versions: 1 2 3 4 5 6 7 8 9 10 11 12 13 14 15 16 17 18 19 20 21 22 23 24 25 26 27 28 29 30 31 32 33 34 35 36 37 38 39 40 41 42 43 44 45 46 47 48 49 50
000
ASUS44 KMEG 171610
RWRTN
TENNESSEE HOURLY STATE WEATHER ROUNDUP
NATIONAL WEATHER SERVICE MEMPHIS TN
1000 AM CST WED JAN 17 2018

TNZ002-004-019-021-049-052-054-088>092-171700-
WEST TENNESSEE

CITY           SKY/WX    TMP DP  RH WIND       PRES   REMARKS
MEMPHIS INTL   FAIR      14   6  70 N9        30.77R WCI   2
NWS MEMPHIS      N/A     12 N/A N/A MISG        N/A
JACKSON        CLOUDY    11   5  77 N8        30.74R WCI  -1
DYERSBURG      FAIR      26  17  68 NE7       30.77R WCI  18
SOMERVILLE     PTSUNNY   10   5  79 N8        30.74R WCI  -1
COVINGTON      MOSUNNY   10   7  85 NW5       30.78R WCI   2
UNION CITY     CLOUDY    12   5  73 CALM      30.75R
BOLIVAR        MOSUNNY   12   5  73 N8        30.73R WCI   1
PARIS          PTSUNNY    9   3  78 N5        30.71R WCI   0
HUNTINGDON     CLOUDY    10   3  72 N5        30.71S WCI   2
LEXINGTON      CLOUDY    10   5  79 N8        30.72R WCI  -1
SELMER         PTSUNNY   10   3  72 N8        30.71R WCI  -1
SAVANNAH       CLOUDY    12   5  73 N7        30.71R WCI   2
$$

TNZ008-025-027-028-033-062-065-066-171700-
NORTH MIDDLE TENNESSEE

CITY           SKY/WX    TMP DP  RH WIND       PRES   REMARKS
NASHVILLE      CLOUDY    13   5  70 N10       30.69R WCI   0
PORTLAND       CLOUDY    10   3  72 N9G15     30.65R WCI  -2
CLARKSVILLE    LGT SNOW  11   3  70 NW7       30.70R WCI   0
SMYRNA         LGT SNOW  12   6  77 N10       30.69R WCI  -1
COOKEVILLE     PTSUNNY    9   3  78 NW12      30.59R WCI  -6
GALLATIN       CLOUDY    12   5  73 N10       30.71R WCI  -1
CROSSVILLE     CLOUDY     6   0  76 N12       30.48R HAZE    WCI  -9
$$

TNZ061-075-076-078-094-096-097-171700-
SOUTH MIDDLE TENNESSEE

CITY           SKY/WX    TMP DP  RH WIND       PRES   REMARKS
FAYETTEVILLE   PTSUNNY   12   5  73 N13       30.60R WCI  -3
TULLAHOMA      CLOUDY    10   3  72 N15       30.59R WCI  -6
WINCHESTER       N/A     10   3  72 N10       30.60R WCI  -3
MCMINNVILLE    MOSUNNY   10   3  72 N12G17    30.60R WCI  -4
COLUMBIA       CLOUDY    10   5  79 N8G14     30.66R WCI  -1
SHELBYVILLE    PTSUNNY   10   7  85 N14       30.64R HAZE    WCI  -5
$$

TNZ017-018-042-046-047-171700-
NORTHEAST TENNESSEE

CITY           SKY/WX    TMP DP  RH WIND       PRES   REMARKS
TRI CITIES     LGT SNOW  16  10  77 N6        30.41R WCI   7
ELIZABETHTON   LGT SNOW  16  10  79 W13       30.37S WCI   2
$$

TNZ012-013-036-069-073-074-171700-
CENTRAL EAST TENNESSEE

CITY           SKY/WX    TMP DP  RH WIND       PRES   REMARKS
KNOXVILLE      PTSUNNY   12   3  67 N9        30.52R WCI   0
OAK RIDGE      FAIR      13   3  64 CALM      30.55R
DOWNTOWN KNOXV CLOUDY    14   3  62 VRB6G13   30.55R WCI   5
GATLINBURG     CLOUDY    12   5  73 NW6       30.51R WCI   3
MORRISTOWN     PTSUNNY   12   5  73 N8        30.46R WCI   1
JACKSBORO      PTSUNNY   10   0  61 N8G16     30.57R WCI  -1
$$

TNZ083-085-099-171700-
SOUTHEAST TENNESSEE

CITY           SKY/WX    TMP DP  RH WIND       PRES   REMARKS
CHATTANOOGA    FAIR      16   3  56 NW13      30.56R WCI   2
DAYTON         MOSUNNY   16   7  67 N13G18    30.55S WCI   2
$$

SKY/WX REPORTED AS FAIR MEANS FEW OR NO CLOUDS BELOW
12 THOUSAND FEET.





USA.gov is the U.S. government's official web portal to all federal, state and local government web resources and services.